[[{"header":{"parameterUnit":"m.s-1","parameterCategory":1,"la1":30.2991,"la2":30.254,"lo1":-89.0895,"lo2":-89.0444,"dy":0.0017,"dx":0.0017,"nx":28,"ny":28,"refTime":"2023-07-21T03:00:00:Z","depth":0,"parameterNumber":2,"parameterNumberName":"U-component_of_WINDS"},"data":[0,0,0,0,0,0,0,0,0,0,0,0,0,0,0,0,0,0,0,0,0,0,0,0,0,0,0,0,0,0,0,0,0,0,0,0,0,0,0,0,0,0,0,0,0,0,0,0,0,0,0,0,0,0,0,0,0,0,1.4755,1.4756,0,1.4887,1.4889,1.489,1.4896,1.4894,1.4893,1.4891,1.5027,1.5032,1.5037,0,0,0,0,0,0,0,0,0,0,0,0,0,1.4505,1.4509,1.4755,1.4756,1.4758,1.4887,1.4889,1.4891,1.4896,1.4894,1.4892,1.4891,1.5025,1.5031,1.5037,0,0,0,0,0,0,0,0,0,0,0,0,0,1.4623,1.4511,1.4754,1.4776,1.478,1.4887,1.4889,1.4891,1.4897,1.4894,1.4892,1.489,1.5023,1.5031,1.5038,1.5133,0,0,1.5062,1.5065,0,0,0,0,0,0,0,0,1.4616,1.4632,1.4772,1.4775,1.4779,1.4873,1.4851,1.4972,1.4897,1.4852,1.4891,1.4889,1.4978,1.4989,1.5019,1.5139,1.5145,1.5062,1.5067,1.507,1.5072,0,0,0,0,0,0,0,1.4608,1.4626,1.4807,1.4773,1.4778,1.4779,1.4793,1.4874,1.4927,1.4856,1.4857,1.4872,1.4979,1.5012,1.5022,1.5147,1.5062,1.5069,1.5074,1.5077,1.5349,1.5352,0,0,0,0,0,0,1.4596,1.462,1.4803,1.4811,1.469,1.4786,1.4801,1.4845,1.4926,1.4936,1.4874,1.4872,1.5,1.5013,1.5027,1.5142,1.507,1.5077,1.5082,1.5347,1.535,1.5353,0,0,0,0,0,0,1.459,1.4612,1.4798,1.4716,1.4739,1.4792,1.4841,1.4849,1.4881,1.494,1.4949,1.4898,1.4998,1.5016,1.5106,1.5146,1.5081,1.5088,1.5344,1.5348,1.5351,1.5372,0,0,0,0,0,0,1.4583,1.461,1.4647,1.4716,1.4744,1.4875,1.4844,1.4853,1.4894,1.4893,1.4964,1.4973,1.4998,1.5095,1.5114,1.5156,1.5094,1.534,1.5345,1.535,1.5368,1.5377,1.5384,0,0,0,0,0,1.4574,1.4648,1.4649,1.4671,1.4791,1.4877,1.4893,1.492,1.4898,1.4935,1.4972,1.4971,1.5139,1.5104,1.5125,1.517,1.5338,1.5344,1.535,1.5365,1.5375,1.5384,0,0,0,0,0,0,1.4581,1.4657,1.4659,1.4757,1.4811,1.4878,1.4926,1.493,1.499,1.4986,1.5017,1.5033,1.5121,1.5155,1.5114,1.5265,1.5236,1.5246,1.524,1.525,1.5258,1.5247,1.51,0,0,0,0,0,1.4594,1.4659,1.4721,1.4802,1.4829,1.4872,1.4911,1.4927,1.4983,1.5006,1.505,1.5105,1.5169,1.5212,1.5275,1.5373,1.5388,1.5415,1.5422,1.5428,1.5437,1.549,1.5503,1.5373,1.5373,1.5372,0,0,1.4622,1.4671,1.471,1.4804,1.4848,1.4913,1.4891,1.4962,1.501,1.5017,1.5104,1.5138,1.5201,1.5295,1.5339,1.5326,1.5476,1.5436,1.544,1.5446,1.5498,1.551,1.5521,1.5377,1.5376,1.5375,0,0,1.4705,1.4749,1.4821,1.4865,1.493,1.4959,1.4976,1.5043,1.5065,1.5153,1.5159,1.5217,1.5329,1.5373,1.541,1.5509,1.551,1.5529,1.5569,1.5621,1.5631,1.564,1.5674,1.5686,1.5537,1.5537,1.5537,0,1.4731,1.483,1.4857,1.4927,1.4968,1.4977,1.5049,1.509,1.5173,1.5201,1.5185,1.5324,1.5367,1.5471,1.5495,1.5525,1.5545,1.5521,1.5627,1.5637,1.5646,1.5679,1.5692,1.5539,1.5539,1.5539,1.5539,0,1.4858,1.4926,1.4976,1.5056,1.5102,1.5173,1.521,1.5254,1.5266,1.5296,1.5384,1.5436,1.551,1.5535,1.5548,1.5641,1.5631,1.5621,1.5592,1.5659,1.5691,1.5704,1.5542,1.5541,1.554,1.554,0,0,1.4949,1.5043,1.5061,1.5096,1.5169,1.5222,1.5293,1.5365,1.5401,1.5458,1.5517,1.5611,1.5602,1.5644,1.5661,1.5706,1.578,1.5691,1.5693,1.5705,1.5885,1.5891,1.5906,1.5781,1.5784,1.5786,1.5879,0,1.504,1.5166,1.5193,1.5302,1.5364,1.5373,1.5435,1.5486,1.5515,1.5573,1.5605,1.5671,1.5654,1.568,1.5725,1.5761,1.5816,1.5755,1.5836,1.5839,1.582,1.5922,1.593,1.6016,1.5892,1.5894,1.5896,0,1.5163,1.5222,1.5337,1.5401,1.5428,1.5483,1.555,1.5605,1.5663,1.5681,1.5728,1.574,1.5813,1.578,1.5881,1.5838,1.5873,1.5896,1.59,1.5908,1.5871,1.5933,1.6044,1.6056,1.5915,1.5914,1.5912,0,1.5217,1.5326,1.5408,1.5439,1.5516,1.5554,1.5587,1.5642,1.5683,1.5742,1.5769,1.5835,1.5871,1.5922,1.5951,1.5925,1.6049,1.6019,1.6065,1.6065,1.6091,1.6089,1.6208,1.6114,1.6114,1.6114,1.6113,0,1.5315,1.5385,1.5434,1.5485,1.5563,1.5592,1.5668,1.5702,1.575,1.5807,1.5819,1.5872,1.5908,1.5966,1.5989,1.6068,1.6085,1.6101,1.6106,1.61,1.6097,1.6122,1.6117,1.6117,1.6116,1.6116,1.6115,0,1.5388,1.5424,1.5515,1.558,1.5598,1.5652,1.5707,1.5757,1.5786,1.5858,1.5877,1.5923,1.5992,1.6026,1.6111,1.6127,1.6216,1.6218,1.6196,1.6198,1.6242,1.6237,1.6382,1.6402,1.6295,1.6296,1.6297,0,1.5448,1.5502,1.5573,1.5612,1.5646,1.5709,1.5751,1.5781,1.5824,1.5893,1.5934,1.6003,1.606,1.6169,1.621,1.6275,1.6278,1.6324,1.6288,1.6279,1.6278,1.6274,1.6279,1.6331,1.6332,1.6332,1.6333,0,1.555,1.5565,1.5625,1.5691,1.5741,1.5794,1.5847,1.5878,1.5917,1.5964,1.6035,1.6079,1.6166,1.6234,1.6302,1.6336,1.6341,1.6344,1.6358,1.6352,1.6337,1.6345,1.6213,1.6341,1.634,1.6339,1.6339,1.6339,1.5618,1.5666,1.5723,1.579,1.5832,1.5881,1.593,1.5966,1.6025,1.6099,1.6113,1.6187,1.6242,1.6334,1.637,1.6428,1.6418,1.6438,1.6443,1.6448,1.6449,1.6328,1.644,1.644,1.644,1.644,1.644,0,1.572,1.5757,1.5818,1.5891,1.5943,1.5944,1.6002,1.6045,1.611,1.6161,1.6217,1.6297,1.6363,1.6409,1.6476,1.6513,1.6517,1.653,1.6527,1.6534,1.6455,1.6436,1.6525,1.6525,1.6525,1.6525,1.6525,1.6525,1.5779,1.586,1.5882,1.5984,1.602,1.6093,1.6126,1.6171,1.6212,1.6301,1.6356,1.6386,1.6434,1.6505,1.6565,1.6577,1.66,1.6613,1.6624,1.6549,1.654,1.6532,1.6514,1.6618,1.6618,1.6699,1.67,1.67]},{"header":{"parameterUnit":"m.s-1","parameterCategory":1,"la1":30.2991,"la2":30.254,"lo1":-89.0895,"lo2":-89.0444,"dy":0.0017,"dx":0.0017,"nx":28,"ny":28,"refTime":"2023-07-21T03:00:00:Z","depth":0,"parameterNumber":3,"parameterNumberName":"V-component_of_WINDS"},"data":[0,0,0,0,0,0,0,0,0,0,0,0,0,0,0,0,0,0,0,0,0,0,0,0,0,0,0,0,0,0,0,0,0,0,0,0,0,0,0,0,0,0,0,0,0,0,0,0,0,0,0,0,0,0,0,0,0,0,5.9665,5.9665,0,5.9658,5.9658,5.9658,5.9565,5.9562,5.956,5.9558,5.955,5.9552,5.9554,0,0,0,0,0,0,0,0,0,0,0,0,0,5.9598,5.96,5.9665,5.9665,5.9665,5.9658,5.9658,5.9658,5.9565,5.9562,5.9559,5.9557,5.9549,5.9552,5.9554,0,0,0,0,0,0,0,0,0,0,0,0,0,5.9613,5.9601,5.9665,5.9618,5.9614,5.9658,5.9658,5.9658,5.9566,5.9562,5.9559,5.9555,5.9549,5.9551,5.9554,5.9644,0,0,5.9564,5.9565,0,0,0,0,0,0,0,0,5.9612,5.9616,5.9625,5.9621,5.9617,5.9609,5.9631,5.9653,5.9566,5.9584,5.9558,5.9553,5.9572,5.9573,5.958,5.9643,5.9643,5.9564,5.9566,5.9567,5.9568,0,0,0,0,0,0,0,5.9611,5.9615,5.9662,5.9625,5.962,5.9597,5.9595,5.9635,5.9598,5.9582,5.9575,5.9576,5.9569,5.9577,5.9579,5.9643,5.9564,5.9566,5.9568,5.9569,5.9779,5.9782,0,0,0,0,0,0,5.9617,5.9615,5.9663,5.9662,5.9606,5.9601,5.9599,5.9615,5.9597,5.9591,5.9579,5.9571,5.9574,5.9575,5.9578,5.968,5.9567,5.957,5.9571,5.9775,5.9779,5.9783,0,0,0,0,0,0,5.9616,5.9622,5.9663,5.9637,5.964,5.9606,5.9624,5.9616,5.9624,5.9595,5.9588,5.9593,5.9571,5.9574,5.9628,5.9679,5.9571,5.9574,5.977,5.9776,5.9781,5.9887,0,0,0,0,0,0,5.9614,5.9622,5.9656,5.9638,5.9642,5.9713,5.9628,5.9619,5.9629,5.962,5.9607,5.9601,5.9568,5.9624,5.9631,5.9681,5.9576,5.9766,5.9773,5.978,5.9879,5.9895,5.991,0,0,0,0,0,5.9612,5.9686,5.9658,5.9664,5.9683,5.9716,5.9718,5.9679,5.9634,5.9667,5.9648,5.9601,5.9673,5.963,5.9637,5.9689,5.9762,5.9771,5.9779,5.9872,5.9892,5.9909,0,0,0,0,0,0,5.9711,5.9683,5.9652,5.9722,5.9722,5.9701,5.9741,5.9702,5.9716,5.9706,5.9657,5.9655,5.9716,5.9708,5.9661,5.9774,5.9709,5.9719,5.9777,5.9796,5.9812,5.9812,5.9579,0,0,0,0,0,5.974,5.977,5.9744,5.9808,5.981,5.9776,5.9789,5.9759,5.9757,5.9757,5.9742,5.9742,5.9764,5.978,5.9799,5.9877,5.9873,5.9917,5.9932,5.9945,5.9954,5.9994,6.0013,5.9811,5.9811,5.9811,0,0,5.9802,5.9791,5.9812,5.9828,5.9824,5.9856,5.9777,5.9813,5.9836,5.9762,5.9812,5.9802,5.9798,5.9865,5.9893,5.986,6.0009,5.9956,5.9966,5.9968,6.0005,6.0024,6.0041,5.9817,5.9816,5.9815,0,0,5.9931,5.9926,5.9978,5.9976,5.9972,5.9949,5.9962,5.9947,5.9937,5.9986,5.9931,5.9958,5.9997,5.9997,6.0002,6.0131,6.0088,6.0138,6.0219,6.0259,6.0275,6.0289,6.0334,6.0351,6.0148,6.0148,6.0148,0,6.0008,6.0053,6.001,6.005,6.0058,5.9993,6.0046,6.0047,6.0049,6.0056,6.0019,6.0067,6.006,6.0125,6.0157,6.0164,6.0176,6.0139,6.0276,6.029,6.0302,6.0344,6.0361,6.0154,6.0154,6.0153,6.0152,0,6.0147,6.0179,6.0222,6.0226,6.0239,6.0286,6.025,6.0268,6.0237,6.0218,6.0269,6.0259,6.0274,6.0288,6.0258,6.0349,6.0328,6.0285,6.0218,6.0328,6.0367,6.0383,6.0163,6.0161,6.0159,6.0157,0,0,6.0337,6.0316,6.0333,6.0334,6.0325,6.0348,6.0392,6.0407,6.0423,6.0428,6.0462,6.0497,6.0456,6.0462,6.0432,6.0467,6.0569,6.0419,6.0418,6.0446,6.0667,6.07,6.0719,6.0541,6.0544,6.0546,6.0667,0,6.0459,6.0532,6.0495,6.0572,6.06,6.054,6.0577,6.0576,6.0559,6.0581,6.0563,6.0588,6.0533,6.0536,6.0568,6.055,6.0612,6.0541,6.0572,6.0574,6.0573,6.074,6.0774,6.0889,6.0682,6.0685,6.0687,0,6.0612,6.0623,6.0703,6.0688,6.0698,6.0733,6.0743,6.0765,6.0762,6.0748,6.0755,6.0716,6.0757,6.0693,6.0748,6.07,6.0711,6.0704,6.0708,6.0708,6.0636,6.0744,6.0925,6.0942,6.0711,6.0709,6.0707,0,6.0741,6.0775,6.0827,6.083,6.0814,6.084,6.0834,6.0828,6.0839,6.0849,6.0856,6.087,6.0878,6.089,6.0856,6.0812,6.0917,6.0849,6.0905,6.0906,6.0929,6.0928,6.1113,6.0938,6.0938,6.0938,6.0937,0,6.0881,6.0932,6.0884,6.0916,6.0972,6.0929,6.0985,6.0973,6.0968,6.0996,6.0945,6.0973,6.0927,6.095,6.0925,6.0974,6.0979,6.0968,6.096,6.0972,6.0973,6.0977,6.0968,6.0942,6.0941,6.094,6.0939,0,6.1034,6.1004,6.1056,6.1037,6.1034,6.1075,6.1059,6.1088,6.1068,6.1104,6.1111,6.108,6.1104,6.1072,6.1094,6.1076,6.1144,6.1125,6.1145,6.1139,6.1197,6.1192,6.1391,6.1414,6.1225,6.1227,6.1229,0,6.1125,6.1162,6.1148,6.1163,6.116,6.1186,6.1197,6.1157,6.1171,6.117,6.1199,6.1219,6.1233,6.1276,6.1255,6.1272,6.1252,6.132,6.1254,6.1264,6.1252,6.1249,6.1253,6.1334,6.1336,6.1338,6.1339,0,6.1289,6.1272,6.129,6.1304,6.1319,6.1327,6.1332,6.1347,6.1305,6.1323,6.1348,6.1359,6.1381,6.1402,6.1412,6.1407,6.1366,6.1361,6.1374,6.1386,6.1396,6.139,6.1181,6.1356,6.1354,6.1353,6.1352,6.1351,6.1413,6.1443,6.1437,6.1459,6.1458,6.1464,6.149,6.1473,6.1493,6.1507,6.1483,6.1514,6.151,6.152,6.1519,6.1543,6.1513,6.1533,6.1538,6.1543,6.1552,6.1393,6.1545,6.1544,6.1544,6.1543,6.1543,0,6.1573,6.1567,6.1587,6.1595,6.1613,6.1573,6.1576,6.1593,6.1621,6.1621,6.1636,6.1664,6.1684,6.1665,6.1681,6.1704,6.1686,6.1709,6.1707,6.1706,6.1578,6.1564,6.1724,6.1724,6.1724,6.1724,6.1724,6.1724,6.1659,6.1708,6.1691,6.1739,6.1732,6.1762,6.1767,6.1772,6.1771,6.1805,6.1821,6.1809,6.1801,6.1816,6.1833,6.1827,6.1835,6.1865,6.1853,6.1733,6.1715,6.1698,6.1685,6.1868,6.1868,6.1979,6.198,6.198]}]]